Location: Pradons
(44.4746°N, 4.3578°E)
Time: 15:03:58
(UTC+00:00)

CZ-4C R/B - Pass Details

Date: 09 April 2020
Orbit: 637 x 1365 km, 63.4° (Epoch: 28 May)

Event Time Altitude Azimuth Distance (km) Brightness Sun altitude
Rises 20:50:06 0° 324° (NW) 3,743 6.9 -24.5°
Reaches altitude 10° 20:52:43 10° 331° (NNW) 2,896 5.9 -24.9°
Maximum altitude 20:59:22 42° 42° (NE) 1,637 3.6 -25.8°
Enters shadow 21:01:49 34° 81° (E) 1,923 3.7 -26.1°
